Change the Weather History Date:

Monday, June 17, 2013

  Actual Average Record
Temperature  
Mean Temperature 52 °F -  
Max Temperature 57 °F 69 °F 86 °F (2006)
Min Temperature 46 °F 49 °F 33 °F (1972)
Degree Days  
Heating Degree Days 14    
Growing Degree Days 2 (Base 50)    
Moisture  
Dew Point 49 °F    
Average Humidity 86    
Maximum Humidity 100    
Minimum Humidity 75    
Precipitation  
Precipitation 0.00 in - - ()
Sea Level Pressure  
Sea Level Pressure 29.94 in    
Wind  
Wind Speed 3 mph (NNE)    
Max Wind Speed 9 mph    
Max Gust Speed -    
Visibility 9 miles    
Events Fog , Rain    
Averages and records for this station are not official NWS values.
T = Trace of Precipitation, MM = Missing Value Source: NWS Daily Summary

Daily Weather History Graph

Daily Weather History Graph

Search for Another Location

Airport or City:

Trip Planner

Search our weather history database for the weather conditions in past years. The results will help you decide how hot, cold, wet, or windy it might be!

Date:

Astronomy

Jun. 17, 2013 Rise Set
Actual Time 5:52 AM EDT 9:34 PM EDT
Civil Twilight 5:13 AM EDT 10:12 PM EDT
Nautical Twilight 4:22 AM EDT 11:03 PM EDT
Astronomical Twilight 3:12 AM EDT 12:14 AM EDT
Moon 2:57 PM EDT (6/17) 1:45 AM EDT (6/17)
Length of Visible Light 16h 58m
Length of Day
15h 42m
First Quarter, 60% of the Moon is Illuminated
Jun 17
First Quarter
Jun 23
Full
Jun 30
Last Quarter
Jul 8
New
Jul 15
First Quarter

Hourly Weather History & Observations

Time (EDT) Temp. Windchill Dew Point Humidity Pressure Visibility Wind Dir Wind Speed Gust Speed Precip Events Conditions
12:15 AM - - - N/A% 29.84 in 7.0 mi Calm Calm - N/A   Mostly Cloudy
12:35 AM - - - N/A% 29.85 in 10.0 mi West 3.5 mph - N/A   Mostly Cloudy
12:55 AM - - - N/A% 29.85 in 10.0 mi West 3.5 mph - N/A   Scattered Clouds
1:15 AM - - - N/A% 29.86 in 10.0 mi NW 5.8 mph - N/A   Clear
1:34 AM - - - N/A% 29.86 in 10.0 mi WNW 5.8 mph - N/A   Clear
1:55 AM - - - N/A% 29.86 in 10.0 mi Calm Calm - N/A   Mostly Cloudy
2:15 AM - - - N/A% 29.85 in 10.0 mi Calm Calm - N/A Rain Light Rain
2:34 AM - - - N/A% 29.84 in 7.0 mi Calm Calm - N/A   Mostly Cloudy
2:55 AM - - - N/A% 29.87 in 3.0 mi Calm Calm - N/A   Scattered Clouds
3:14 AM - - - N/A% 29.86 in 3.0 mi Calm Calm - N/A   Clear
3:35 AM - - - N/A% 29.88 in 1.5 mi West 4.6 mph - N/A   Mist
3:55 AM - - - N/A% 29.88 in 2.0 mi West 4.6 mph - N/A   Clear
4:14 AM - - - N/A% 29.89 in 10.0 mi West 4.6 mph - N/A   Clear
4:35 AM - - - N/A% 29.88 in 5.0 mi Calm Calm - N/A   Haze
4:55 AM - - - N/A% 29.88 in 10.0 mi Calm Calm - N/A   Mostly Cloudy
5:15 AM - - - N/A% 29.90 in 10.0 mi West 5.8 mph - N/A   Overcast
5:35 AM - - - N/A% 29.90 in 10.0 mi West 3.5 mph - N/A   Mostly Cloudy
5:54 AM - - - N/A% 29.90 in 10.0 mi Calm Calm - N/A   Scattered Clouds
6:15 AM - - - N/A% 29.90 in 10.0 mi NW 3.5 mph - N/A   Scattered Clouds
6:34 AM - - - N/A% 29.90 in 10.0 mi Calm Calm - N/A   Mostly Cloudy
6:55 AM - - - N/A% - - North - - N/A   Unknown
7:14 AM - - - N/A% 29.91 in 7.0 mi North 5.8 mph - N/A   Overcast
7:35 AM - - - N/A% - - North - - N/A   Unknown
7:55 AM 48.0 °F - 47.8 °F 99% 29.92 in 0.8 mi North 8.1 mph - N/A   Overcast
8:15 AM 47.7 °F - 47.7 °F 100% 29.93 in 0.5 mi North 4.6 mph - N/A Fog Fog
8:35 AM 48.2 °F - 48.2 °F 100% 29.93 in 2.0 mi North 5.8 mph - N/A   Overcast
8:55 AM 48.2 °F - 48.2 °F 100% 29.93 in 5.0 mi North 5.8 mph - N/A   Overcast
9:15 AM 48.6 °F - 48.4 °F 99% 29.93 in 10.0 mi NE 3.5 mph - N/A   Overcast
9:35 AM 49.1 °F - 48.7 °F 99% 29.93 in 10.0 mi North 3.5 mph - N/A   Overcast
9:55 AM 49.5 °F - 48.7 °F 97% 29.94 in 10.0 mi NNE 4.6 mph - N/A   Overcast
10:15 AM 50.0 °F - 48.6 °F 95% 29.93 in 10.0 mi ENE 5.8 mph - N/A   Overcast
10:35 AM 49.6 °F - 48.0 °F 94% 29.94 in 10.0 mi ENE 5.8 mph - N/A   Overcast
10:54 AM 49.8 °F - 48.4 °F 95% 29.95 in 10.0 mi NE 5.8 mph - N/A   Overcast
11:15 AM 50.0 °F - 48.2 °F 94% 29.97 in 10.0 mi East 3.5 mph - N/A   Overcast
11:34 AM 51.6 °F - 49.1 °F 91% 29.97 in 10.0 mi NE 6.9 mph - N/A   Overcast
11:55 AM 55.8 °F - 50.9 °F 84% 29.97 in 10.0 mi NE 5.8 mph - N/A   Mostly Cloudy
12:15 PM 55.6 °F - 49.6 °F 80% 29.96 in 10.0 mi NE 5.8 mph - N/A   Mostly Cloudy
12:34 PM 55.8 °F - 49.8 °F 80% 29.97 in 10.0 mi NE 6.9 mph - N/A   Mostly Cloudy
12:55 PM 55.4 °F - 49.5 °F 80% 29.97 in 10.0 mi East 5.8 mph - N/A   Mostly Cloudy
1:15 PM 56.7 °F - 49.6 °F 77% 29.97 in 10.0 mi East 6.9 mph - N/A   Mostly Cloudy
1:35 PM 55.8 °F - 49.6 °F 80% 29.98 in 10.0 mi NE 4.6 mph - N/A   Overcast
1:55 PM 55.8 °F - 49.6 °F 80% 29.98 in 10.0 mi ENE 6.9 mph - N/A   Mostly Cloudy
2:15 PM 56.1 °F - 49.8 °F 79% 29.97 in 10.0 mi ENE 8.1 mph - N/A   Mostly Cloudy
2:35 PM 55.8 °F - 50.0 °F 81% 29.97 in 10.0 mi NE 5.8 mph - N/A   Mostly Cloudy
2:55 PM 55.6 °F - 50.0 °F 81% 29.98 in 10.0 mi East 5.8 mph - N/A   Overcast
3:14 PM 54.7 °F - 50.2 °F 85% 29.97 in 10.0 mi NE 4.6 mph - N/A   Light Drizzle
3:35 PM 54.1 °F - 50.9 °F 89% 29.97 in 10.0 mi East 3.5 mph - N/A   Overcast
3:55 PM 54.3 °F - 50.4 °F 86% 29.97 in 10.0 mi NE 6.9 mph - N/A   Overcast
4:15 PM 55.0 °F - 50.0 °F 83% 29.97 in 10.0 mi East 5.8 mph - N/A   Overcast
4:35 PM 56.7 °F - 50.2 °F 79% 29.97 in 10.0 mi NNE 5.8 mph - N/A   Overcast
4:54 PM 57.2 °F - 49.6 °F 76% 29.96 in 10.0 mi ENE 5.8 mph - N/A   Mostly Cloudy
5:15 PM 56.5 °F - 49.1 °F 76% 29.97 in 10.0 mi ENE 5.8 mph - N/A   Mostly Cloudy
5:35 PM 55.4 °F - 48.7 °F 78% 29.98 in 10.0 mi ENE 5.8 mph - N/A   Overcast
5:55 PM 54.1 °F - 48.6 °F 81% 29.98 in 10.0 mi ESE 6.9 mph - N/A   Overcast
6:15 PM 53.8 °F - 48.4 °F 82% 29.98 in 10.0 mi East 4.6 mph - N/A   Overcast
6:34 PM 55.0 °F - 48.4 °F 78% 29.97 in 10.0 mi ESE 3.5 mph - N/A   Scattered Clouds
6:55 PM 55.4 °F - 48.6 °F 78% 29.97 in 10.0 mi East 3.5 mph - N/A   Clear
7:15 PM 55.4 °F - 48.4 °F 77% 29.97 in 10.0 mi Calm Calm - N/A   Clear
7:34 PM 57.0 °F - 49.3 °F 75% 29.97 in 10.0 mi NNW 3.5 mph - N/A   Clear
7:55 PM 54.9 °F - 48.7 °F 80% 29.97 in 10.0 mi NNW 3.5 mph - N/A   Scattered Clouds
8:15 PM 54.0 °F - 49.6 °F 85% 29.98 in 10.0 mi Calm Calm - N/A   Clear
8:35 PM 54.0 °F - 49.3 °F 84% 29.98 in 10.0 mi NW 3.5 mph - N/A   Scattered Clouds
8:55 PM 53.6 °F - 49.3 °F 85% 29.99 in 10.0 mi Calm Calm - N/A   Overcast
9:14 PM 52.5 °F - 49.5 °F 89% 29.99 in 10.0 mi NW 3.5 mph - N/A   Mostly Cloudy
9:35 PM 51.8 °F - 49.1 °F 90% 29.99 in 10.0 mi Calm Calm - N/A   Overcast
9:54 PM 50.5 °F - 48.4 °F 92% 30.00 in 10.0 mi Calm Calm - N/A   Mostly Cloudy
10:15 PM 51.3 °F - 48.7 °F 91% 30.01 in 10.0 mi North 3.5 mph - N/A   Overcast
10:35 PM 51.3 °F - 48.2 °F 89% 30.03 in 10.0 mi North 5.8 mph - N/A   Overcast
10:55 PM 50.0 °F - 44.2 °F 81% 30.03 in 10.0 mi North 9.2 mph - N/A   Overcast
11:15 PM 48.2 °F - 43.0 °F 82% 30.04 in 10.0 mi North 8.1 mph - N/A   Scattered Clouds
11:34 PM 46.9 °F - 42.3 °F 84% 30.05 in 10.0 mi North 4.6 mph - N/A   Clear
11:55 PM 46.4 °F 44.3 °F 41.0 °F 81% 30.06 in 10.0 mi North 4.6 mph - N/A   Scattered Clouds